Location: Usti nad Labem
(50.6670°N, 14.0330°E)
Time: 10:02:18
(UTC+02:00)

ISS - Visible Passes

Search period start: 20 October 2021 00:00
Search period end: 30 October 2021 00:00
Orbit: 417 x 423 km, 51.6° (Epoch: 20 October)

Date Brightness Start Highest point End Pass type
(mag) Time Alt. Az. Time Alt. Az. Time Alt. Az.
20 Oct -0.6 07:02:10 10° SSE 07:03:35 12° SE 07:04:58 10° ESE visible
23 Oct -1.1 06:16:18 10° S 06:18:42 18° SE 06:21:06 10° E visible
24 Oct -0.9 05:30:18 10° SSE 05:31:48 12° SE 05:33:18 10° ESE visible
24 Oct -2.9 07:04:45 10° SW 07:08:02 50° SSE 07:11:20 10° E visible
25 Oct -2.4 06:18:17 13° SW 06:21:02 37° SSE 06:24:10 10° E visible
26 Oct -2.1 05:33:31 25° SSE 05:34:05 26° SSE 05:36:58 10° E visible
26 Oct -3.7 07:07:16 10° WSW 07:10:39 85° SSE 07:14:02 10° ENE visible
27 Oct -0.8 04:48:39 15° ESE 04:48:39 15° ESE 04:49:39 10° E visible
27 Oct -3.6 06:21:40 23° WSW 06:23:37 68° SSE 06:26:59 10° ENE visible
28 Oct -3.2 05:36:44 51° SSE 05:36:44 51° SSE 05:39:57 10° E visible
28 Oct -3.7 07:10:05 10° W 07:13:27 75° N 07:16:50 10° E visible
29 Oct -0.9 04:51:47 18° E 04:51:47 18° E 04:52:54 10° E visible
29 Oct -3.8 06:24:47 28° W 06:26:26 82° N 06:29:50 10° ENE visible
